TimeCST,TemperatureF,Dew PointF,Humidity,Sea Level PressureIn,VisibilityMPH,Wind Direction,Wind SpeedMPH,Gust SpeedMPH,PrecipitationIn,Events,Conditions,WindDirDegrees,DateUTC
12:00 AM,30.2,30.2,100,30.07,10.0,NNW,9.2,-,N/A,,Clear,330,2012-11-07 06:00:00
12:20 AM,30.2,30.2,100,30.08,10.0,NW,10.4,-,N/A,,Clear,320,2012-11-07 06:20:00
12:40 AM,30.2,30.2,100,30.07,10.0,NW,10.4,-,N/A,,Clear,320,2012-11-07 06:40:00
1:00 AM,28.4,28.4,100,30.07,10.0,NW,9.2,-,N/A,,Clear,320,2012-11-07 07:00:00
1:20 AM,28.4,28.4,100,30.07,10.0,NNW,8.1,-,N/A,,Clear,340,2012-11-07 07:20:00
1:40 AM,28.4,28.4,100,30.07,10.0,NNW,8.1,-,N/A,,Clear,330,2012-11-07 07:40:00
2:00 AM,28.4,28.4,100,30.08,10.0,NNW,6.9,-,N/A,,Clear,330,2012-11-07 08:00:00
2:40 AM,28.4,28.4,100,30.08,10.0,NW,6.9,-,N/A,,Clear,320,2012-11-07 08:40:00
3:00 AM,26.6,26.6,100,30.08,10.0,NNW,8.1,-,N/A,,Clear,330,2012-11-07 09:00:00
3:20 AM,28.4,28.4,100,30.09,10.0,NW,5.8,-,N/A,,Clear,320,2012-11-07 09:20:00
3:40 AM,28.4,28.4,100,30.09,10.0,NW,5.8,-,N/A,,Clear,310,2012-11-07 09:40:00
4:00 AM,28.4,28.4,100,30.09,10.0,NW,5.8,-,N/A,,Clear,310,2012-11-07 10:00:00
4:20 AM,28.4,28.4,100,30.10,10.0,NW,5.8,-,N/A,,Clear,310,2012-11-07 10:20:00
4:40 AM,28.4,28.4,100,30.10,10.0,WNW,4.6,-,N/A,,Clear,300,2012-11-07 10:40:00
5:00 AM,26.6,26.6,100,30.10,10.0,WNW,6.9,-,N/A,,Clear,300,2012-11-07 11:00:00
5:20 AM,28.4,28.4,100,30.10,10.0,WNW,3.5,-,N/A,,Clear,300,2012-11-07 11:20:00
5:40 AM,26.6,26.6,100,30.10,10.0,WNW,3.5,-,N/A,,Clear,300,2012-11-07 11:40:00
6:00 AM,26.6,26.6,100,30.10,10.0,West,4.6,-,N/A,,Clear,280,2012-11-07 12:00:00
6:20 AM,28.4,28.4,100,30.10,10.0,West,3.5,-,N/A,,Clear,260,2012-11-07 12:20:00
6:40 AM,26.6,26.6,100,30.10,10.0,WSW,3.5,-,N/A,,Clear,250,2012-11-07 12:40:00
7:00 AM,26.6,26.6,100,30.10,10.0,Calm,Calm,-,N/A,,Clear,0,2012-11-07 13:00:00
7:20 AM,26.6,26.6,100,30.10,10.0,West,3.5,-,N/A,,Clear,260,2012-11-07 13:20:00
7:40 AM,26.6,26.6,100,30.11,10.0,WSW,4.6,-,N/A,,Clear,250,2012-11-07 13:40:00
8:00 AM,28.4,28.4,100,30.11,10.0,SW,3.5,-,N/A,,Clear,230,2012-11-07 14:00:00
8:20 AM,28.4,28.4,100,30.11,10.0,SSW,4.6,-,N/A,,Clear,210,2012-11-07 14:20:00
8:40 AM,30.2,30.2,100,30.11,10.0,SW,3.5,-,N/A,,Clear,220,2012-11-07 14:40:00
9:00 AM,32.0,32.0,100,30.11,10.0,SSW,4.6,-,N/A,,Clear,210,2012-11-07 15:00:00
9:20 AM,35.6,35.6,100,30.10,10.0,SW,5.8,-,N/A,,Clear,220,2012-11-07 15:20:00
9:40 AM,37.4,37.4,100,30.10,10.0,SSW,8.1,-,N/A,,Clear,200,2012-11-07 15:40:00
10:00 AM,39.2,39.2,100,30.10,10.0,South,8.1,-,N/A,,Clear,180,2012-11-07 16:00:00
10:20 AM,41.0,37.4,87,30.10,10.0,SSW,10.4,-,N/A,,Clear,200,2012-11-07 16:20:00
10:40 AM,42.8,37.4,81,30.10,10.0,SSW,12.7,-,N/A,,Clear,210,2012-11-07 16:40:00
11:00 AM,42.8,33.8,70,30.10,10.0,SW,11.5,17.3,N/A,,Clear,220,2012-11-07 17:00:00
11:20 AM,44.6,33.8,66,30.08,10.0,SSW,12.7,-,N/A,,Clear,210,2012-11-07 17:20:00
11:40 AM,44.6,33.8,66,30.07,10.0,SW,12.7,-,N/A,,Clear,220,2012-11-07 17:40:00
12:00 PM,46.4,33.8,62,30.06,10.0,SSW,11.5,-,N/A,,Clear,200,2012-11-07 18:00:00
12:20 PM,46.4,33.8,62,30.05,10.0,South,12.7,-,N/A,,Clear,180,2012-11-07 18:20:00
12:40 PM,46.4,32.0,57,30.03,10.0,South,13.8,-,N/A,,Clear,190,2012-11-07 18:40:00
1:00 PM,48.2,32.0,54,30.03,10.0,South,12.7,-,N/A,,Clear,190,2012-11-07 19:00:00
1:20 PM,48.2,32.0,54,30.01,10.0,SSW,11.5,17.3,N/A,,Clear,200,2012-11-07 19:20:00
1:40 PM,48.2,32.0,54,30.01,10.0,South,13.8,18.4,N/A,,Clear,190,2012-11-07 19:40:00
2:00 PM,48.2,32.0,54,30.00,10.0,South,15.0,19.6,N/A,,Clear,190,2012-11-07 20:00:00
2:20 PM,48.2,33.8,58,29.99,10.0,South,13.8,-,N/A,,Clear,180,2012-11-07 20:20:00
2:40 PM,48.2,32.0,54,29.98,10.0,South,15.0,-,N/A,,Clear,170,2012-11-07 20:40:00
3:00 PM,48.2,32.0,54,29.98,10.0,South,16.1,-,N/A,,Clear,180,2012-11-07 21:00:00
3:25 PM,46.4,32.0,57,29.97,10.0,South,16.1,-,N/A,,Clear,170,2012-11-07 21:25:00
3:40 PM,48.2,32.0,54,29.97,10.0,South,16.1,-,N/A,,Clear,180,2012-11-07 21:40:00
4:00 PM,46.4,32.0,57,29.97,10.0,SSE,13.8,20.7,N/A,,Clear,160,2012-11-07 22:00:00
4:20 PM,46.4,32.0,57,29.96,10.0,South,12.7,20.7,N/A,,Clear,170,2012-11-07 22:20:00
4:40 PM,46.4,32.0,57,29.96,10.0,SSE,11.5,-,N/A,,Clear,160,2012-11-07 22:40:00
5:00 PM,44.6,32.0,61,29.95,10.0,SSE,12.7,-,N/A,,Clear,160,2012-11-07 23:00:00
5:20 PM,42.8,32.0,66,29.95,10.0,SSE,11.5,-,N/A,,Clear,160,2012-11-07 23:20:00
5:40 PM,41.0,32.0,70,29.94,10.0,North,-9999.0,-,N/A,,Clear,0,2012-11-07 23:40:00
6:00 PM,41.0,32.0,70,29.94,10.0,SSE,12.7,-,N/A,,Clear,160,2012-11-08 00:00:00
6:20 PM,41.0,33.8,76,29.94,10.0,SSE,12.7,-,N/A,,Clear,150,2012-11-08 00:20:00
6:40 PM,41.0,33.8,76,29.93,10.0,SSE,10.4,-,N/A,,Clear,160,2012-11-08 00:40:00
7:00 PM,39.2,32.0,75,29.93,10.0,SSE,13.8,-,N/A,,Clear,160,2012-11-08 01:00:00
7:20 PM,39.2,32.0,75,29.93,10.0,South,15.0,19.6,N/A,,Clear,170,2012-11-08 01:20:00
7:40 PM,39.2,32.0,75,29.92,10.0,South,16.1,21.9,N/A,,Clear,170,2012-11-08 01:40:00
8:00 PM,39.2,32.0,75,29.93,10.0,South,17.3,21.9,N/A,,Clear,170,2012-11-08 02:00:00
8:20 PM,39.2,32.0,75,29.92,10.0,South,19.6,26.5,N/A,,Clear,170,2012-11-08 02:20:00
8:40 PM,39.2,32.0,75,29.92,10.0,South,20.7,26.5,N/A,,Clear,170,2012-11-08 02:40:00
9:00 PM,39.2,32.0,75,29.91,10.0,South,21.9,27.6,N/A,,Clear,170,2012-11-08 03:00:00
9:20 PM,39.2,32.0,75,29.92,10.0,South,21.9,28.8,N/A,,Clear,170,2012-11-08 03:20:00
9:40 PM,39.2,32.0,75,29.91,10.0,South,19.6,24.2,N/A,,Clear,170,2012-11-08 03:40:00
10:00 PM,39.2,32.0,75,29.90,10.0,South,18.4,-,N/A,,Clear,180,2012-11-08 04:00:00
10:15 PM,39.2,32.0,75,29.90,10.0,South,18.4,-,N/A,,Clear,170,2012-11-08 04:15:00
10:40 PM,39.2,32.0,75,29.90,10.0,South,18.4,23.0,N/A,,Clear,170,2012-11-08 04:40:00
11:00 PM,39.2,32.0,75,29.89,10.0,South,20.7,25.3,N/A,,Clear,170,2012-11-08 05:00:00
11:20 PM,39.2,32.0,75,29.89,10.0,South,18.4,-,N/A,,Clear,170,2012-11-08 05:20:00
11:40 PM,39.2,32.0,75,29.88,10.0,South,18.4,23.0,N/A,,Clear,170,2012-11-08 05:40:00